JEI212 EDDH-EDMO

Flight info

Callsign JEI212
Flight time 0h 56m
Altitude 43000
Route IDEKO7G IDEKO N850 NIE DCT BERXO DCT SILWE DCT OSBIT/N0445F270 P605 TOSTU/N0421F230 P605 DKB Z818 ELVAG Y161 MAH
Aircraft LJ35/M-SGHRWXY/SB1

Departure

Time 2026-04-24 16:08
Airport Hamburg Helmut Schmidt Airport (EDDH)

Arrival

Time 2026-04-24 17:04
Airport Oberpfaffenhofen Airport (EDMO)
Time Latitude Longitude Altitude Speed Heading
2026-04-24 15:37 53.62559 9.99552 41 ft 0 kts 149°
2026-04-24 16:04 53.62545 9.99533 41 ft 6 kts 251°
2026-04-24 16:05 53.62534 9.99357 41 ft 5 kts 304°
2026-04-24 16:05 53.62576 9.99335 41 ft 8 kts 352°
2026-04-24 16:06 53.62613 9.99539 41 ft 12 kts 79°
2026-04-24 16:06 53.62622 9.99617 41 ft 0 kts 78°
2026-04-24 16:07 53.62623 9.99620 41 ft 2 kts 78°
2026-04-24 16:07 53.62630 9.99681 41 ft 9 kts 81°
2026-04-24 16:07 53.62723 9.99859 40 ft 14 kts 353°
2026-04-24 16:08 53.62803 9.99799 40 ft 23 kts 333°
2026-04-24 16:08 53.64127 9.98680 863 ft 134 kts 328°
2026-04-24 16:09 53.65912 9.97102 2910 ft 154 kts 330°
2026-04-24 16:09 53.66974 9.96196 3531 ft 185 kts 333°
2026-04-24 16:09 53.68220 9.95209 4186 ft 210 kts 333°
2026-04-24 16:09 53.69550 9.93910 4856 ft 233 kts 321°
2026-04-24 16:10 53.70704 9.85338 6876 ft 302 kts 252°
2026-04-24 16:11 53.67534 9.80659 8784 ft 324 kts 201°
2026-04-24 16:11 53.65291 9.80262 9975 ft 328 kts 176°
2026-04-24 16:11 53.63010 9.81130 10771 ft 351 kts 163°
2026-04-24 16:12 53.58227 9.83346 13573 ft 361 kts 172°
2026-04-24 16:12 53.55716 9.83646 14964 ft 363 kts 182°
2026-04-24 16:12 53.50582 9.83264 17480 ft 375 kts 184°
2026-04-24 16:13 53.47949 9.83325 18665 ft 381 kts 180°
2026-04-24 16:13 53.42610 9.83596 20713 ft 391 kts 184°
2026-04-24 16:14 53.37079 9.83637 22817 ft 403 kts 183°
2026-04-24 16:14 53.34254 9.83731 23833 ft 409 kts 183°
2026-04-24 16:14 53.28512 9.83854 25541 ft 416 kts 184°
2026-04-24 16:15 53.26584 9.83890 26092 ft 418 kts 184°
2026-04-24 16:15 53.19747 9.84057 27840 ft 427 kts 184°
2026-04-24 16:16 53.13754 9.84176 29200 ft 434 kts 184°
2026-04-24 16:16 53.10717 9.84241 29854 ft 437 kts 184°
2026-04-24 16:17 53.01511 9.84453 31818 ft 436 kts 185°
2026-04-24 16:17 52.95571 9.84590 33748 ft 418 kts 186°
2026-04-24 16:18 52.89774 9.84703 34885 ft 418 kts 186°
2026-04-24 16:18 52.83934 9.84832 35597 ft 426 kts 186°
2026-04-24 16:18 52.80955 9.84901 36002 ft 427 kts 186°
2026-04-24 16:19 52.74963 9.85026 36607 ft 433 kts 185°
2026-04-24 16:19 52.71926 9.85094 36909 ft 437 kts 186°
2026-04-24 16:20 52.65811 9.85226 37438 ft 441 kts 185°
2026-04-24 16:20 52.59695 9.85362 38160 ft 440 kts 185°
2026-04-24 16:20 52.56639 9.85429 38534 ft 439 kts 185°
2026-04-24 16:21 52.50627 9.85562 39620 ft 425 kts 185°
2026-04-24 16:21 52.47674 9.85624 40006 ft 425 kts 185°
2026-04-24 16:21 52.44713 9.85684 40380 ft 424 kts 184°
2026-04-24 16:22 52.41765 9.85749 40761 ft 423 kts 184°
2026-04-24 16:22 52.35880 9.85867 41409 ft 424 kts 184°
2026-04-24 16:22 52.32924 9.85931 41674 ft 425 kts 184°
2026-04-24 16:23 52.29960 9.85996 41958 ft 426 kts 184°
2026-04-24 16:23 52.26990 9.86059 42239 ft 427 kts 183°
2026-04-24 16:23 52.24013 9.86122 42518 ft 428 kts 183°
2026-04-24 16:24 52.18036 9.86247 43061 ft 430 kts 183°
2026-04-24 16:24 52.12018 9.86372 43157 ft 442 kts 182°
2026-04-24 16:25 52.05800 9.86505 43164 ft 451 kts 182°
2026-04-24 16:25 51.99513 9.86637 43164 ft 451 kts 182°
2026-04-24 16:26 51.90064 9.86835 43166 ft 454 kts 182°
2026-04-24 16:27 51.80579 9.87034 43156 ft 454 kts 182°
2026-04-24 16:27 51.74254 9.87164 43160 ft 454 kts 182°
2026-04-24 16:28 51.67932 9.87295 43161 ft 454 kts 182°
2026-04-24 16:28 51.58473 9.87490 43153 ft 454 kts 182°
2026-04-24 16:29 51.52151 9.87620 43159 ft 454 kts 182°
2026-04-24 16:30 51.39514 9.87878 43161 ft 454 kts 182°
2026-04-24 16:30 51.33249 9.88006 43162 ft 453 kts 182°
2026-04-24 16:31 51.26943 9.88133 43161 ft 453 kts 182°
2026-04-24 16:31 51.20649 9.88086 43160 ft 451 kts 186°
2026-04-24 16:32 51.14383 9.87493 43160 ft 451 kts 186°
2026-04-24 16:32 51.08117 9.86966 43160 ft 451 kts 186°
2026-04-24 16:33 51.01891 9.86412 43161 ft 450 kts 186°
2026-04-24 16:33 50.95629 9.85872 43162 ft 451 kts 186°
2026-04-24 16:34 50.89369 9.85326 43165 ft 451 kts 186°
2026-04-24 16:34 50.83101 9.84784 43166 ft 451 kts 186°
2026-04-24 16:35 50.76828 9.84242 43164 ft 451 kts 186°
2026-04-24 16:35 50.70597 9.83705 43163 ft 451 kts 186°
2026-04-24 16:36 50.64329 9.83167 43169 ft 451 kts 186°
2026-04-24 16:36 50.58046 9.82627 43168 ft 452 kts 186°
2026-04-24 16:37 50.51765 9.82091 43162 ft 451 kts 186°
2026-04-24 16:37 50.45511 9.81558 43152 ft 450 kts 186°
2026-04-24 16:38 50.39262 9.81027 43153 ft 449 kts 186°
2026-04-24 16:38 50.33019 9.80497 43147 ft 449 kts 186°
2026-04-24 16:39 50.26779 9.79985 43143 ft 449 kts 185°
2026-04-24 16:39 50.20518 9.80284 43147 ft 451 kts 179°
2026-04-24 16:40 50.14243 9.80602 43146 ft 450 kts 182°
2026-04-24 16:40 50.07986 9.80838 43146 ft 450 kts 180°
2026-04-24 16:41 50.01727 9.81158 43144 ft 450 kts 181°
2026-04-24 16:41 49.95465 9.81408 43141 ft 450 kts 180°
2026-04-24 16:42 49.89210 9.81706 43144 ft 450 kts 181°
2026-04-24 16:42 49.82997 9.81970 43163 ft 450 kts 181°
2026-04-24 16:43 49.76727 9.82256 43133 ft 450 kts 181°
2026-04-24 16:43 49.70467 9.82528 43138 ft 450 kts 181°
2026-04-24 16:44 49.65264 9.82759 43128 ft 450 kts 181°
2026-04-24 16:44 49.59110 9.84371 43140 ft 454 kts 161°
2026-04-24 16:45 49.52423 9.89141 43131 ft 456 kts 156°
2026-04-24 16:45 49.47500 9.92186 43136 ft 455 kts 162°
2026-04-24 16:46 49.41617 9.95780 42366 ft 457 kts 159°
2026-04-24 16:46 49.38696 9.97708 41862 ft 452 kts 159°
2026-04-24 16:46 49.35841 9.99492 41375 ft 447 kts 161°
2026-04-24 16:47 49.32935 10.01247 40650 ft 449 kts 161°
2026-04-24 16:47 49.30037 10.03043 39959 ft 450 kts 160°
2026-04-24 16:47 49.27137 10.04876 39300 ft 449 kts 160°
2026-04-24 16:47 49.24337 10.06640 38650 ft 449 kts 161°
2026-04-24 16:48 49.21348 10.08478 37874 ft 448 kts 161°
2026-04-24 16:48 49.18458 10.10256 37127 ft 446 kts 160°
2026-04-24 16:48 49.15600 10.12035 36396 ft 443 kts 161°
2026-04-24 16:48 49.12763 10.13799 35700 ft 440 kts 160°
2026-04-24 16:49 49.09955 10.15532 35022 ft 438 kts 160°
2026-04-24 16:49 49.07120 10.17272 34350 ft 438 kts 160°
2026-04-24 16:49 49.04286 10.19007 33490 ft 440 kts 159°
2026-04-24 16:49 49.01428 10.20764 32496 ft 445 kts 159°
2026-04-24 16:50 48.99584 10.22146 31844 ft 448 kts 149°
2026-04-24 16:50 48.96421 10.26203 30616 ft 448 kts 134°
2026-04-24 16:50 48.94315 10.29751 29614 ft 443 kts 131°
2026-04-24 16:50 48.92336 10.33239 28599 ft 439 kts 131°
2026-04-24 16:51 48.90228 10.36565 27606 ft 435 kts 136°
2026-04-24 16:51 48.88007 10.39677 26645 ft 432 kts 137°
2026-04-24 16:51 48.85840 10.42821 25760 ft 429 kts 135°
2026-04-24 16:51 48.83786 10.46040 25069 ft 421 kts 134°
2026-04-24 16:52 48.81754 10.49200 24388 ft 415 kts 135°
2026-04-24 16:52 48.79699 10.52240 23719 ft 411 kts 136°
2026-04-24 16:52 48.77655 10.55247 22943 ft 406 kts 135°
2026-04-24 16:52 48.75659 10.58260 22178 ft 403 kts 134°
2026-04-24 16:53 48.73682 10.61263 21437 ft 400 kts 134°
2026-04-24 16:53 48.71736 10.64172 20723 ft 396 kts 134°
2026-04-24 16:53 48.69776 10.67083 20017 ft 394 kts 134°
2026-04-24 16:53 48.67834 10.69981 19325 ft 391 kts 134°
2026-04-24 16:54 48.65906 10.72868 18641 ft 388 kts 134°
2026-04-24 16:54 48.63987 10.75729 17905 ft 386 kts 134°
2026-04-24 16:54 48.62084 10.78559 17153 ft 381 kts 134°
2026-04-24 16:54 48.60207 10.81344 16403 ft 374 kts 134°
2026-04-24 16:55 48.58363 10.84090 15760 ft 369 kts 134°
2026-04-24 16:55 48.56551 10.86784 15178 ft 363 kts 134°
2026-04-24 16:55 48.54757 10.89439 14606 ft 359 kts 135°
2026-04-24 16:55 48.52978 10.92069 14047 ft 356 kts 135°
2026-04-24 16:56 48.51212 10.94677 13418 ft 354 kts 135°
2026-04-24 16:56 48.49467 10.97262 12799 ft 350 kts 135°
2026-04-24 16:56 48.47732 10.99832 12192 ft 348 kts 135°
2026-04-24 16:56 48.46021 11.02342 11606 ft 346 kts 135°
2026-04-24 16:57 48.44309 11.04868 11024 ft 338 kts 135°
2026-04-24 16:57 48.42642 11.07318 10448 ft 330 kts 135°
2026-04-24 16:57 48.41013 11.09717 9870 ft 324 kts 136°
2026-04-24 16:57 48.39413 11.12071 9237 ft 319 kts 136°
2026-04-24 16:58 48.37846 11.14379 8617 ft 311 kts 136°
2026-04-24 16:58 48.36318 11.16621 8011 ft 303 kts 136°
2026-04-24 16:58 48.34821 11.18810 7414 ft 297 kts 137°
2026-04-24 16:58 48.33356 11.20953 6825 ft 291 kts 136°
2026-04-24 16:59 48.31913 11.23063 6232 ft 287 kts 137°
2026-04-24 16:59 48.30482 11.25146 5618 ft 285 kts 137°
2026-04-24 16:59 48.27724 11.29178 4877 ft 265 kts 136°
2026-04-24 17:00 48.26389 11.30974 4588 ft 257 kts 145°
2026-04-24 17:00 48.23364 11.33627 4130 ft 241 kts 152°
2026-04-24 17:00 48.21920 11.34789 4081 ft 234 kts 155°
2026-04-24 17:01 48.19080 11.36840 3990 ft 211 kts 156°
2026-04-24 17:01 48.17779 11.37756 3994 ft 204 kts 156°
2026-04-24 17:02 48.15117 11.38842 3762 ft 202 kts 192°
2026-04-24 17:02 48.13892 11.37882 3516 ft 200 kts 230°
2026-04-24 17:02 48.13246 11.36192 3319 ft 171 kts 246°
2026-04-24 17:02 48.12654 11.34794 2999 ft 145 kts 236°
2026-04-24 17:03 48.11344 11.32721 2572 ft 134 kts 229°
2026-04-24 17:03 48.10680 11.31773 2387 ft 137 kts 223°
2026-04-24 17:03 48.09965 11.30839 2273 ft 134 kts 226°
2026-04-24 17:04 48.09289 11.29904 2070 ft 130 kts 228°
2026-04-24 17:04 48.08195 11.28387 1923 ft 54 kts 224°
2026-04-24 17:04 48.07979 11.28090 1923 ft 37 kts 221°
2026-04-24 17:05 48.07834 11.27895 1925 ft 26 kts 223°
2026-04-24 17:05 48.07702 11.27715 1925 ft 21 kts 223°
2026-04-24 17:05 48.07624 11.27604 1923 ft 2 kts 250°
2026-04-24 17:06 48.07637 11.27572 1923 ft 6 kts 312°
2026-04-24 17:06 48.07763 11.27614 1920 ft 15 kts 42°
2026-04-24 17:06 48.07848 11.27721 1920 ft 16 kts 32°
2026-04-24 17:07 48.07914 11.27764 1920 ft 15 kts 16°
2026-04-24 17:07 48.08049 11.27780 1919 ft 14 kts 360°
2026-04-24 17:07 48.08197 11.27897 1919 ft 12 kts 43°
2026-04-24 17:08 48.08311 11.28062 1919 ft 11 kts 44°
2026-04-24 17:08 48.08352 11.28117 1919 ft 4 kts 17°
2026-04-24 17:08 48.08376 11.28094 1919 ft 4 kts 296°
2026-04-24 17:09 48.08413 11.28015 1919 ft 5 kts 303°
2026-04-24 17:09 48.08400 11.27926 1919 ft 5 kts 213°
2026-04-24 17:10 48.08379 11.27928 1919 ft 2 kts 130°
2026-04-24 17:10 48.08380 11.27945 1919 ft 0 kts 26°
2026-04-24 17:11 48.08379 11.27945 1919 ft 0 kts 26°